Date String (YYYY-MM-DD hh:mm:ss) UTC,Instrument flags,absolute air pressure of the measurement (hPa),sample flow rate (lpm),inlet stack bypass flow (lpm),air temperature of the measurement (°C),ambient temperature measured by the external sensor (°C),aerosol sample conditioner tube jacket temperature (°C),OPC LED temperature (°C),internal box temperature (°C),relative humidity of the measurement (%),span deviation,mass concentration of particles derived from Lorenz-Mie calculation of OPC scattering (μg/m³),mass concentration of particles derived from Lorenz-Mie calculation of OPC scattering (μg/m³),mass concentration of particles derived from Lorenz-Mie calculation of OPC scattering (μg/m³)
DateTimeUTC,F1_M11,P_M11,Q1_M11,Q2_M11,T1_M11,T2_M11,T3_M11,T4_M11,T5_M11,U1_M11,ZSPAN_M11,X2_M11,X0_M11,X1_M11
2024-03-28 04:00:00,SystemResetWarning,0827.7,5.00,000.00,018.2,017.3,000.0,026.9,020.0,13.7,0000.0,0001.66,0004.10,0001.09
2024-03-28 04:01:00,SystemResetWarning,0827.8,5.00,000.00,018.2,017.3,000.0,026.9,020.0,14.0,0000.0,0001.61,0004.03,0001.09
2024-03-28 04:02:00,SystemResetWarning,0828.0,5.00,000.00,018.2,017.3,000.0,026.9,020.0,14.1,0000.0,0001.56,0003.84,0001.09
2024-03-28 04:03:00,SystemResetWarning,0827.9,5.00,000.00,018.2,017.3,000.0,026.9,020.0,14.2,0000.0,0001.57,0003.78,0001.09
2024-03-28 04:04:00,SystemResetWarning,0827.9,5.00,000.00,018.2,017.3,000.0,026.9,020.0,14.1,0000.0,0001.55,0003.63,0001.08
2024-03-28 04:05:00,SystemResetWarning,0828.0,5.00,000.00,018.2,017.3,000.0,026.9,020.0,14.0,0000.0,0001.50,0003.50,0001.07
2024-03-28 04:06:00,SystemResetWarning,0827.9,5.00,000.00,018.2,017.2,000.0,026.9,020.0,13.7,0000.0,0001.51,0003.44,0001.05
2024-03-28 04:07:00,SystemResetWarning,0827.8,5.00,000.00,018.2,017.2,000.0,026.9,020.0,13.6,0000.0,0001.47,0003.32,0001.04
2024-03-28 04:08:00,SystemResetWarning,0827.9,5.00,000.00,018.2,017.2,000.0,027.0,020.0,13.9,0000.0,0001.41,0002.86,0001.03
2024-03-28 04:09:00,SystemResetWarning,0827.9,5.00,000.00,018.2,017.2,000.0,026.9,020.0,13.6,0000.0,0001.35,0002.19,0001.01
2024-03-28 04:10:00,SystemResetWarning,0827.9,5.01,000.00,018.2,017.1,000.0,027.0,020.0,13.8,0000.0,0001.32,0002.03,0001.01
2024-03-28 04:11:00,SystemResetWarning,0827.7,5.00,000.00,018.2,017.1,000.0,026.9,020.0,13.9,0000.0,0001.34,0002.11,0001.01
2024-03-28 04:12:00,SystemResetWarning,0827.8,5.00,000.00,018.2,017.1,000.0,027.0,020.0,13.7,0000.0,0001.38,0002.18,0001.02
2024-03-28 04:13:00,SystemResetWarning,0827.8,5.00,000.00,018.2,017.1,000.0,027.0,020.0,13.7,0000.0,0001.41,0002.30,0001.04
2024-03-28 04:14:00,SystemResetWarning,0827.7,5.00,000.00,018.2,017.0,000.0,027.0,020.0,13.8,0000.0,0001.44,0003.05,0001.06
2024-03-28 04:15:00,SystemResetWarning,0827.8,5.00,000.00,018.2,017.0,000.0,026.9,020.0,13.9,0000.0,0001.45,0003.82,0001.08
2024-03-28 04:16:00,SystemResetWarning,0827.8,5.00,000.00,018.2,017.1,000.0,026.9,020.0,13.7,0000.0,0001.48,0003.90,0001.09
2024-03-28 04:17:00,SystemResetWarning,0827.8,5.00,000.00,018.2,017.1,000.0,027.0,020.0,13.6,0000.0,0001.50,0003.97,0001.10
2024-03-28 04:18:00,SystemResetWarning,0827.8,5.00,000.00,018.2,017.1,000.0,027.0,020.0,13.8,0000.0,0001.50,0003.95,0001.10
2024-03-28 04:19:00,SystemResetWarning,0827.7,5.00,000.00,018.2,017.1,000.0,027.0,020.0,13.5,0000.0,0001.53,0004.02,0001.10
2024-03-28 04:20:00,SystemResetWarning,0827.7,5.00,000.00,018.2,017.1,000.0,027.0,020.0,13.5,0000.0,0001.53,0003.94,0001.11
2024-03-28 04:21:00,SystemResetWarning,0827.7,5.00,000.00,018.2,017.0,000.0,027.0,020.0,13.6,0000.0,0001.56,0003.99,0001.12
2024-03-28 04:22:00,SystemResetWarning,0827.7,5.00,000.00,018.2,017.0,000.0,027.0,020.0,13.6,0000.0,0001.61,0004.05,0001.14
2024-03-28 04:23:00,SystemResetWarning,0827.7,5.00,000.00,018.2,017.0,000.0,027.0,020.0,13.7,0000.0,0001.62,0004.18,0001.14
2024-03-28 04:24:00,SystemResetWarning,0827.7,5.00,000.00,018.2,017.0,000.0,027.0,020.0,13.8,0000.0,0001.65,0004.23,0001.14
2024-03-28 04:25:00,SystemResetWarning,0827.6,5.00,000.00,018.2,017.0,000.0,027.0,020.0,13.7,0000.0,0001.63,0003.57,0001.15
2024-03-28 04:26:00,SystemResetWarning,0827.7,5.00,000.00,018.2,017.0,000.0,027.0,020.0,13.7,0000.0,0001.69,0002.89,0001.15
2024-03-28 04:27:00,SystemResetWarning,0827.6,5.01,000.00,018.2,017.0,000.0,027.0,020.0,13.6,0000.0,0001.68,0002.84,0001.15
2024-03-28 04:28:00,SystemResetWarning,0827.7,5.00,000.00,018.2,017.0,000.0,027.0,020.0,13.5,0000.0,0001.71,0002.87,0001.18
2024-03-28 04:29:00,SystemResetWarning,0827.7,5.00,000.00,018.2,017.0,000.0,027.0,020.0,13.6,0000.0,0001.76,0003.01,0001.19
2024-03-28 04:30:00,SystemResetWarning,0827.7,5.00,000.00,018.2,017.0,000.0,027.0,020.0,13.6,0000.0,0001.76,0002.98,0001.19
2024-03-28 04:31:00,SystemResetWarning,0827.6,5.01,000.00,018.3,017.7,000.0,027.1,020.3,13.5,0000.0,0001.77,0003.12,0001.19
2024-03-28 04:32:00,SystemResetWarning,0827.7,4.99,000.00,018.5,018.6,000.0,027.1,020.8,13.2,0000.0,0001.77,0003.21,0001.19
2024-03-28 04:33:00,SystemResetWarning,0827.7,4.99,000.00,018.7,018.8,000.0,027.1,020.8,13.0,0000.0,0001.79,0003.55,0001.19
2024-03-28 04:34:00,SystemResetWarning,0827.7,5.00,000.00,018.6,018.6,000.0,027.0,020.6,13.1,0000.0,0001.77,0003.54,0001.19
2024-03-28 04:35:00,SystemResetWarning,0827.7,5.00,000.00,018.6,018.4,000.0,027.0,020.4,13.2,0000.0,0001.72,0003.33,0001.19
2024-03-28 04:36:00,SystemResetWarning,0827.7,5.00,000.00,018.6,018.2,000.0,027.0,020.3,13.1,0000.0,0001.70,0003.28,0001.17
2024-03-28 04:37:00,SystemResetWarning,0827.6,5.00,000.00,018.5,018.0,000.0,027.0,020.2,13.1,0000.0,0001.64,0003.13,0001.17
2024-03-28 04:38:00,SystemResetWarning,0827.7,5.01,000.00,018.5,017.9,000.0,027.0,020.2,13.1,0000.0,0001.64,0003.38,0001.17
2024-03-28 04:39:00,SystemResetWarning,0827.7,5.00,000.00,018.5,017.8,000.0,027.0,020.1,13.3,0000.0,0001.64,0003.57,0001.16
2024-03-28 04:40:00,SystemResetWarning,0827.6,5.00,000.00,018.4,017.7,000.0,027.0,020.0,13.3,0000.0,0001.61,0003.66,0001.16
2024-03-28 04:41:00,SystemResetWarning,0827.7,5.00,000.00,018.4,017.6,000.0,027.0,020.0,13.1,0000.0,0001.60,0003.68,0001.17
2024-03-28 04:42:00,SystemResetWarning,0827.7,4.99,000.00,018.4,017.4,000.0,027.0,020.0,13.1,0000.0,0001.62,0003.63,0001.17
2024-03-28 04:43:00,SystemResetWarning,0827.7,5.00,000.00,018.3,017.4,000.0,027.0,020.0,13.3,0000.0,0001.63,0003.58,0001.17
2024-03-28 04:44:00,SystemResetWarning,0827.7,5.00,000.00,018.3,017.3,000.0,027.0,020.0,13.4,0000.0,0001.60,0003.20,0001.18
2024-03-28 04:45:00,SystemResetWarning,0827.6,5.00,000.00,018.3,017.2,000.0,027.0,020.0,13.3,0000.0,0001.60,0003.06,0001.17
2024-03-28 04:46:00,SystemResetWarning,0827.7,5.00,000.00,018.3,017.2,000.0,027.0,020.0,13.4,0000.0,0001.62,0003.12,0001.17
2024-03-28 04:47:00,SystemResetWarning,0827.7,5.00,000.00,018.3,017.2,000.0,027.0,020.0,13.4,0000.0,0001.63,0003.15,0001.18
2024-03-28 04:48:00,SystemResetWarning,0827.6,5.00,000.00,018.3,017.2,000.0,027.0,020.0,13.5,0000.0,0001.66,0003.29,0001.18
2024-03-28 04:49:00,SystemResetWarning,0827.6,5.00,000.00,018.3,017.1,000.0,027.0,020.0,13.3,0000.0,0001.67,0003.08,0001.18
2024-03-28 04:50:00,SystemResetWarning,0827.6,5.00,000.00,018.3,017.1,000.0,027.0,020.0,13.3,0000.0,0001.67,0002.87,0001.18
2024-03-28 04:51:00,SystemResetWarning,0827.6,5.00,000.00,018.2,017.1,000.0,027.0,020.0,13.4,0000.0,0001.71,0002.78,0001.19
2024-03-28 04:52:00,SystemResetWarning,0827.6,5.00,000.00,018.2,017.1,000.0,027.0,020.0,13.2,0000.0,0001.76,0002.90,0001.19
2024-03-28 04:53:00,SystemResetWarning,0827.5,5.01,000.00,018.2,017.1,000.0,027.0,020.0,13.2,0000.0,0001.75,0002.82,0001.19
2024-03-28 04:54:00,SystemResetWarning,0827.5,5.00,000.00,018.2,017.0,000.0,027.0,020.0,13.1,0000.0,0001.69,0002.69,0001.17
2024-03-28 04:55:00,SystemResetWarning,0827.5,5.00,000.00,018.2,017.0,000.0,027.0,020.0,13.0,0000.0,0001.68,0002.82,0001.16
2024-03-28 04:56:00,SystemResetWarning,0827.5,5.00,000.00,018.2,017.1,000.0,027.0,020.0,13.2,0000.0,0001.66,0003.01,0001.15
2024-03-28 04:57:00,SystemResetWarning,0827.5,5.00,000.00,018.2,017.1,000.0,027.0,020.0,13.1,0000.0,0001.68,0003.05,0001.15
2024-03-28 04:58:00,SystemResetWarning,0827.4,5.00,000.00,018.2,017.1,000.0,027.0,020.0,13.2,0000.0,0001.65,0004.00,0001.14
2024-03-28 04:59:00,SystemResetWarning,0827.5,5.00,000.00,018.2,017.1,000.0,027.0,020.0,13.2,0000.0,0001.67,0004.62,0001.14
